Time,TemperatureF,DewpointF,PressureIn,WindDirection,WindDirectionDegrees,WindSpeedMPH,WindSpeedGustMPH,Humidity,HourlyPrecipIn,Conditions,Clouds,dailyrainin,SolarRadiationWatts/m^2,SoftwareType,DateUTC
2013-09-30 00:14:00,78.0,72.0,-100.00,NE,48,1.0,-999.0,81,0.00,,,-99.99,0.000000,,2013-09-30 04:14:00,
2013-09-30 00:25:00,77.0,71.0,-100.00,ENE,73,1.0,-999.0,82,0.00,,,-99.99,0.000000,,2013-09-30 04:25:00,
2013-09-30 00:44:00,77.0,71.0,-100.00,ENE,78,2.0,-999.0,82,0.00,,,-99.99,0.000000,,2013-09-30 04:44:00,
2013-09-30 00:53:00,77.0,71.0,-100.00,ENE,70,2.0,-999.0,83,0.00,,,-99.99,0.000000,,2013-09-30 04:53:00,
2013-09-30 01:12:00,76.0,70.0,-100.00,East,79,2.0,-999.0,81,0.00,,,-99.99,0.000000,,2013-09-30 05:12:00,
2013-09-30 01:23:00,76.0,71.0,-100.00,ENE,68,2.0,-999.0,83,0.00,,,-99.99,0.000000,,2013-09-30 05:23:00,
2013-09-30 01:43:00,76.0,71.0,-100.00,East,82,2.0,-999.0,83,0.00,,,-99.99,0.000000,,2013-09-30 05:43:00,
2013-09-30 01:52:00,76.0,71.0,-100.00,East,84,2.0,-999.0,83,0.00,,,-99.99,0.000000,,2013-09-30 05:52:00,
2013-09-30 02:12:00,76.0,71.0,-100.00,East,101,2.0,-999.0,84,0.00,,,-99.99,0.000000,,2013-09-30 06:12:00,
2013-09-30 02:22:00,77.0,71.0,-100.00,ESE,104,3.0,-999.0,83,0.00,,,-99.99,0.000000,,2013-09-30 06:22:00,
2013-09-30 02:42:00,77.0,71.0,-100.00,SE,130,2.0,-999.0,82,0.00,,,-99.99,0.000000,,2013-09-30 06:42:00,
2013-09-30 02:52:00,77.0,72.0,-100.00,SE,136,1.0,-999.0,83,0.00,,,-99.99,0.000000,,2013-09-30 06:52:00,
2013-09-30 03:12:00,77.0,72.0,-100.00,SE,124,1.0,-999.0,85,0.00,,,-99.99,0.000000,,2013-09-30 07:12:00,
2013-09-30 03:22:00,76.0,71.0,-100.00,NE,43,1.0,-999.0,86,0.00,,,-99.99,0.000000,,2013-09-30 07:22:00,
2013-09-30 03:42:00,76.0,72.0,-100.00,North,357,2.0,-999.0,88,0.00,,,-99.99,0.000000,,2013-09-30 07:42:00,
2013-09-30 03:53:00,76.0,72.0,-100.00,NE,38,1.0,-999.0,87,0.00,,,-99.99,0.000000,,2013-09-30 07:53:00,
2013-09-30 04:12:00,75.0,72.0,-100.00,NNE,20,2.0,-999.0,89,0.00,,,-99.99,0.000000,,2013-09-30 08:12:00,
2013-09-30 04:22:00,75.0,72.0,-100.00,NNE,20,2.0,-999.0,89,0.00,,,-99.99,0.000000,,2013-09-30 08:22:00,
2013-09-30 04:42:00,74.0,70.0,-100.00,NNW,329,1.0,-999.0,88,0.00,,,-99.99,0.000000,,2013-09-30 08:42:00,
2013-09-30 04:52:00,75.0,72.0,-100.00,NNW,346,1.0,-999.0,91,0.00,,,-99.99,0.000000,,2013-09-30 08:52:00,
2013-09-30 05:11:00,75.0,72.0,-100.00,NNE,12,2.0,-999.0,91,0.00,,,-99.99,0.000000,,2013-09-30 09:11:00,
2013-09-30 05:22:00,75.0,71.0,-100.00,NNE,21,2.0,-999.0,87,0.00,,,-99.99,0.000000,,2013-09-30 09:22:00,
2013-09-30 05:42:00,75.0,71.0,-100.00,NNE,18,3.0,-999.0,85,0.00,,,-99.99,0.000000,,2013-09-30 09:42:00,
2013-09-30 05:54:00,77.0,72.0,-100.00,North,11,3.0,-999.0,85,0.00,,,-99.99,0.000000,,2013-09-30 09:54:00,
2013-09-30 06:13:00,77.0,72.0,-100.00,NNW,343,2.0,-999.0,84,0.00,,,-99.99,0.000000,,2013-09-30 10:13:00,
2013-09-30 06:23:00,77.0,73.0,-100.00,West,275,1.0,-999.0,86,0.00,,,-99.99,0.000000,,2013-09-30 10:23:00,
2013-09-30 06:42:00,77.0,73.0,-100.00,NNE,23,2.0,-999.0,88,0.00,,,-99.99,0.000000,,2013-09-30 10:42:00,
2013-09-30 06:53:00,77.0,73.0,-100.00,NNE,21,2.0,-999.0,87,0.00,,,-99.99,0.000000,,2013-09-30 10:53:00,
2013-09-30 07:12:00,76.0,72.0,-100.00,North,356,1.0,-999.0,88,0.00,,,-99.99,0.000000,,2013-09-30 11:12:00,
2013-09-30 07:22:00,76.0,73.0,-100.00,North,11,2.0,-999.0,90,0.00,,,-99.99,0.100000,,2013-09-30 11:22:00,
2013-09-30 07:43:00,75.0,72.0,-100.00,NNE,17,2.0,-999.0,90,0.00,,,-99.99,2.700000,,2013-09-30 11:43:00,
2013-09-30 07:52:00,74.0,71.0,-100.00,West,266,1.0,-999.0,90,0.00,,,-99.99,8.900000,,2013-09-30 11:52:00,
2013-09-30 08:12:00,76.0,74.0,-100.00,NW,311,1.0,-999.0,92,0.00,,,-99.99,30.299999,,2013-09-30 12:12:00,
2013-09-30 08:22:00,78.0,75.0,-100.00,North,9,2.0,-999.0,90,0.00,,,-99.99,78.699997,,2013-09-30 12:22:00,
2013-09-30 08:42:00,80.0,75.0,-100.00,NW,307,1.0,-999.0,85,0.00,,,-99.99,74.400002,,2013-09-30 12:42:00,
2013-09-30 08:52:00,80.0,76.0,-100.00,NNE,27,0.0,-999.0,85,0.00,,,-99.99,53.799999,,2013-09-30 12:52:00,
2013-09-30 09:11:00,81.0,76.0,-100.00,NNE,29,1.0,-999.0,86,0.00,,,-99.99,65.800003,,2013-09-30 13:11:00,
2013-09-30 09:22:00,82.0,75.0,-100.00,ESE,111,1.0,-999.0,80,0.00,,,-99.99,150.600006,,2013-09-30 13:22:00,
2013-09-30 09:42:00,84.0,75.0,-100.00,SE,141,4.0,-999.0,73,0.00,,,-99.99,356.500000,,2013-09-30 13:42:00,
2013-09-30 09:52:00,84.0,74.0,-100.00,SE,133,5.0,-999.0,71,0.00,,,-99.99,237.100006,,2013-09-30 13:52:00,
2013-09-30 10:11:00,85.0,74.0,-100.00,SE,143,5.0,-999.0,69,0.00,,,-99.99,321.299988,,2013-09-30 14:11:00,
2013-09-30 10:22:00,85.0,74.0,-100.00,SE,128,6.0,-999.0,68,0.00,,,-99.99,373.399994,,2013-09-30 14:22:00,
2013-09-30 10:42:00,85.0,74.0,-100.00,SE,133,6.0,-999.0,68,0.00,,,-99.99,371.899994,,2013-09-30 14:42:00,
2013-09-30 10:53:00,85.0,74.0,-100.00,ESE,111,7.0,-999.0,69,0.00,,,-99.99,406.600006,,2013-09-30 14:53:00,
2013-09-30 11:11:00,85.0,74.0,-100.00,East,101,8.0,-999.0,68,0.00,,,-99.99,591.299988,,2013-09-30 15:11:00,
2013-09-30 11:23:00,85.0,73.0,-100.00,ESE,110,6.0,-999.0,68,0.00,,,-99.99,289.399994,,2013-09-30 15:23:00,
2013-09-30 11:45:00,85.0,74.0,-100.00,ESE,102,6.0,-999.0,68,0.00,,,-99.99,548.000000,,2013-09-30 15:45:00,
2013-09-30 11:54:00,86.0,74.0,-100.00,ESE,122,6.0,-999.0,65,0.00,,,-99.99,639.200012,,2013-09-30 15:54:00,
2013-09-30 12:14:00,87.0,74.0,-100.00,ESE,104,7.0,-999.0,66,0.00,,,-99.99,744.000000,,2013-09-30 16:14:00,
2013-09-30 12:24:00,86.0,73.0,-100.00,ESE,113,7.0,-999.0,64,0.00,,,-99.99,806.000000,,2013-09-30 16:24:00,
2013-09-30 12:44:00,87.0,73.0,-100.00,ESE,108,6.0,-999.0,62,0.00,,,-99.99,846.000000,,2013-09-30 16:44:00,
2013-09-30 12:54:00,87.0,73.0,-100.00,East,97,7.0,-999.0,62,0.00,,,-99.99,874.000000,,2013-09-30 16:54:00,
2013-09-30 13:13:00,87.0,73.0,-100.00,ESE,108,6.0,-999.0,62,0.00,,,-99.99,901.000000,,2013-09-30 17:13:00,
2013-09-30 13:23:00,88.0,73.0,-100.00,ESE,111,6.0,-999.0,61,0.00,,,-99.99,820.000000,,2013-09-30 17:23:00,
2013-09-30 13:43:00,87.0,73.0,-100.00,ESE,110,7.0,-999.0,63,0.00,,,-99.99,551.099976,,2013-09-30 17:43:00,
2013-09-30 13:53:00,87.0,74.0,-100.00,ESE,108,7.0,-999.0,66,0.00,,,-99.99,501.700012,,2013-09-30 17:53:00,
2013-09-30 14:12:00,87.0,74.0,-100.00,ESE,106,7.0,-999.0,65,0.00,,,-99.99,900.000000,,2013-09-30 18:12:00,
2013-09-30 14:22:00,86.0,73.0,-100.00,ESE,115,8.0,-999.0,66,0.00,,,-99.99,210.500000,,2013-09-30 18:22:00,
2013-09-30 14:42:00,86.0,74.0,-100.00,SE,124,7.0,-999.0,65,0.00,,,-99.99,675.599976,,2013-09-30 18:42:00,
2013-09-30 14:54:00,87.0,74.0,-100.00,ESE,117,7.0,-999.0,65,0.00,,,-99.99,680.799988,,2013-09-30 18:54:00,
2013-09-30 15:12:00,87.0,75.0,-100.00,East,98,9.0,-999.0,67,0.00,,,-99.99,791.000000,,2013-09-30 19:12:00,
2013-09-30 15:22:00,87.0,75.0,-100.00,ESE,113,8.0,-999.0,66,0.00,,,-99.99,817.000000,,2013-09-30 19:22:00,
2013-09-30 15:42:00,87.0,75.0,-100.00,ESE,110,9.0,-999.0,66,0.00,,,-99.99,781.000000,,2013-09-30 19:42:00,
2013-09-30 15:53:00,87.0,75.0,-100.00,East,100,9.0,-999.0,67,0.00,,,-99.99,740.000000,,2013-09-30 19:53:00,
2013-09-30 16:23:00,87.0,75.0,-100.00,East,97,9.0,-999.0,67,0.00,,,-99.99,644.099976,,2013-09-30 20:23:00,
2013-09-30 16:43:00,87.0,75.0,-100.00,ESE,104,9.0,-999.0,67,0.00,,,-99.99,607.500000,,2013-09-30 20:43:00,
2013-09-30 16:53:00,87.0,75.0,-100.00,East,100,8.0,-999.0,67,0.00,,,-99.99,552.799988,,2013-09-30 20:53:00,
2013-09-30 17:11:00,86.0,75.0,-100.00,East,96,10.0,-999.0,68,0.00,,,-99.99,505.399994,,2013-09-30 21:11:00,
2013-09-30 17:23:00,86.0,75.0,-100.00,ESE,106,10.0,-999.0,68,0.00,,,-99.99,453.500000,,2013-09-30 21:23:00,
2013-09-30 17:44:00,86.0,75.0,-100.00,East,97,12.0,-999.0,70,0.00,,,-99.99,402.899994,,2013-09-30 21:44:00,
2013-09-30 17:54:00,86.0,75.0,-100.00,East,94,10.0,-999.0,70,0.00,,,-99.99,364.500000,,2013-09-30 21:54:00,
2013-09-30 18:13:00,85.0,75.0,-100.00,East,98,11.0,-999.0,71,0.00,,,-99.99,265.500000,,2013-09-30 22:13:00,
2013-09-30 18:24:00,85.0,74.0,-100.00,East,97,11.0,-999.0,71,0.00,,,-99.99,187.199997,,2013-09-30 22:24:00,
2013-09-30 18:44:00,85.0,75.0,-100.00,ESE,104,10.0,-999.0,71,0.00,,,-99.99,170.399994,,2013-09-30 22:44:00,
2013-09-30 18:54:00,84.0,74.0,-100.00,ESE,108,9.0,-999.0,72,0.00,,,-99.99,70.199997,,2013-09-30 22:54:00,
2013-09-30 19:12:00,83.0,74.0,-100.00,ESE,104,9.0,-999.0,74,0.00,,,-99.99,14.900000,,2013-09-30 23:12:00,
2013-09-30 19:23:00,83.0,74.0,-100.00,ESE,103,8.0,-999.0,74,0.00,,,-99.99,7.000000,,2013-09-30 23:23:00,
2013-09-30 19:43:00,83.0,74.0,-100.00,ESE,110,7.0,-999.0,74,0.00,,,-99.99,1.900000,,2013-09-30 23:43:00,
2013-09-30 19:54:00,83.0,74.0,-100.00,ESE,110,7.0,-999.0,74,0.00,,,-99.99,0.100000,,2013-09-30 23:54:00,
2013-09-30 20:12:00,83.0,74.0,-100.00,ESE,114,6.0,-999.0,75,0.00,,,-99.99,0.000000,,2013-10-01 00:12:00,
2013-09-30 20:23:00,82.0,74.0,-100.00,ESE,110,6.0,-999.0,75,0.00,,,-99.99,0.000000,,2013-10-01 00:23:00,
2013-09-30 20:43:00,83.0,74.0,-100.00,ESE,117,6.0,-999.0,74,0.00,,,-99.99,0.000000,,2013-10-01 00:43:00,
2013-09-30 20:52:00,83.0,74.0,-100.00,ESE,114,6.0,-999.0,74,0.00,,,-99.99,0.000000,,2013-10-01 00:52:00,
2013-09-30 21:12:00,82.0,74.0,-100.00,ESE,113,6.0,-999.0,75,0.00,,,-99.99,0.000000,,2013-10-01 01:12:00,
2013-09-30 21:22:00,82.0,74.0,-100.00,ESE,118,6.0,-999.0,74,0.00,,,-99.99,0.000000,,2013-10-01 01:22:00,
2013-09-30 21:42:00,83.0,73.0,-100.00,ESE,119,6.0,-999.0,74,0.00,,,-99.99,0.000000,,2013-10-01 01:42:00,
2013-09-30 21:52:00,83.0,73.0,-100.00,ESE,113,6.0,-999.0,73,0.00,,,-99.99,0.000000,,2013-10-01 01:52:00,
2013-09-30 22:12:00,83.0,73.0,-100.00,ESE,115,6.0,-999.0,72,0.00,,,-99.99,0.000000,,2013-10-01 02:12:00,
2013-09-30 22:22:00,83.0,73.0,-100.00,ESE,108,7.0,-999.0,72,0.00,,,-99.99,0.000000,,2013-10-01 02:22:00,
2013-09-30 22:43:00,83.0,73.0,-100.00,ESE,110,7.0,-999.0,73,0.00,,,-99.99,0.000000,,2013-10-01 02:43:00,
2013-09-30 22:52:00,83.0,74.0,-100.00,ESE,113,6.0,-999.0,74,0.00,,,-99.99,0.000000,,2013-10-01 02:52:00,
2013-09-30 23:12:00,83.0,74.0,-100.00,ESE,114,6.0,-999.0,74,0.00,,,-99.99,0.000000,,2013-10-01 03:12:00,
2013-09-30 23:22:00,83.0,74.0,-100.00,ESE,111,7.0,-999.0,75,0.00,,,-99.99,0.000000,,2013-10-01 03:22:00,
2013-09-30 23:44:00,83.0,74.0,-100.00,ESE,113,6.0,-999.0,75,0.00,,,-99.99,0.000000,,2013-10-01 03:44:00,
2013-09-30 23:55:00,83.0,74.0,-100.00,ESE,112,7.0,-999.0,74,0.00,,,-99.99,0.000000,,2013-10-01 03:55:00,